NOAA NWS Hourly Roundups by Site

Regional Weather Roundup for Omaha, NE

To Select Another Site Choose from List

Select Site:  

000
ASUS43 KOAX 141110
RWRNE

WEATHER ROUNDUP FOR NEBRASKA
NATIONAL WEATHER SERVICE OMAHA NE
500 AM CST FRI DEC 14 2018

NOTES: SATELLITE DATA IS BEING USED TO AUGMENT CLOUD COVER ABOVE
       12000 FEET.
       "FAIR" INDICATES FEW OR NO CLOUDS BELOW 12,000 FEET WITH NO
       SIGNIFICANT WEATHER AND/OR OBSTRUCTIONS TO VISIBILITY.


NEZ001>004-019>022-054>056-141200-
NEBRASKA PANHANDLE

CITY           SKY/WX    TMP DP  RH WIND       PRES   REMARKS
SCOTTSBLUFF    CLEAR     27  15  61 NW7       30.25R WCI  19
ALLIANCE       CLEAR     18  14  84 CALM      30.21S
CHADRON        CLEAR     25  18  74 SW8       30.23R WCI  16
GORDON         FAIR      30  19  62 W8        30.19S WCI  23
KIMBALL        CLEAR     28  13  53 W8        30.24R WCI  19
SIDNEY         CLEAR     23  14  68 W9        30.24S WCI  13
$$

NEZ057>060-069>072-079>082-141200-
SOUTHWEST NEBRASKA

CITY           SKY/WX    TMP DP  RH WIND       PRES   REMARKS
NORTH PLATTE   CLEAR     16  12  84 NW6       30.25S WCI   7
IMPERIAL       CLEAR     22  11  62 W7        30.25S WCI  13
LEXINGTON      FAIR      22  18  85 W8        30.25S WCI  13
MCCOOK         CLEAR     20  15  81 W13       30.27S WCI   7
OGALLALA       CLEAR     20  17  87 W7        30.25S WCI  11
$$

NEZ005>010-023>029-035>040-094-141200-
NORTH CENTRAL NEBRASKA

CITY           SKY/WX    TMP DP  RH WIND       PRES   REMARKS
VALENTINE      PTCLDY    23  18  81 SW9       30.19S WCI  13
AINSWORTH      CLEAR     22  15  75 W8        30.18S WCI  12
BROKEN BOW     FAIR      17  13  84 CALM      30.22S
O`NEILL        FAIR      22  17  79 SW7       30.20R WCI  13
ORD            FAIR      18  15  88 CALM      30.22S
THEDFORD       CLEAR     16  13  87 CALM      30.21S
$$

NEZ041-046>049-061>064-073>077-083>087-141200-
SOUTH CENTRAL NEBRASKA

CITY           SKY/WX    TMP DP  RH WIND       PRES   REMARKS
GRAND ISLAND   CLOUDY    21  18  88 W6        30.25S WCI  13
AURORA         CLOUDY    22  20  90 W6        30.24S WCI  15
HASTINGS       CLOUDY    24  19  81 W7        30.24F WCI  16
HEBRON         CLEAR     26  22  84 CALM      30.24S
HOLDREGE       CLOUDY    22  18  85 W5        30.24F WCI  16
KEARNEY        CLOUDY    21  16  81 CALM      30.25F
YORK           CLOUDY    23  19  86 NW7       30.24S WCI  15
$$

NEZ011>018-030>034-042>045-141200-
NORTHEAST NEBRASKA

CITY           SKY/WX    TMP DP  RH WIND       PRES   REMARKS
NORFOLK        CLOUDY    18  17  96 CALM      30.22S
ALBION         CLOUDY    18  16  90 CALM      30.23S
BLAIR          CLOUDY    24  22  91 CALM      30.23S
COLUMBUS       CLOUDY    20  17  88 SW3       30.26R
FREMONT        PTCLDY    20  19  94 W6        30.25R WCI  12
TEKAMAH        CLOUDY    17  15  92 CALM      30.25S FOG
WAYNE          CLOUDY    14  10  85 S5        30.23S WCI   6
$$

NEZ050>053-065>068-078-088>093-141200-
SOUTHEAST NEBRASKA

CITY           SKY/WX    TMP DP  RH WIND       PRES   REMARKS
LINCOLN        CLOUDY    20  17  88 CALM      30.25F
OMAHA EPPLEY   CLOUDY    21  19  92 CALM      30.25S
BEATRICE       CLEAR     22  20  95 CALM      30.24S
FALLS CITY     CLOUDY    30  28  92 N12       30.23R WCI  20
NEBRASKA CITY  CLEAR     27  23  87 N3        30.24S
PLATTSMOUTH    CLOUDY    24  22  93 NW5       30.24S WCI  18
$$

NEZ044-045-051>053-067-141200-
OMAHA AREA

CITY           SKY/WX    TMP DP  RH WIND       PRES   REMARKS
OMAHA EPPLEY   CLOUDY    21  19  92 CALM      30.25S
BLAIR          CLOUDY    24  22  91 CALM      30.23S
FREMONT        PTCLDY    20  19  94 W6        30.25R WCI  12
MILLARD        CLOUDY    25  22  87 CALM      30.25S
OFFUTT AFB     CLOUDY    21  21 100 NW3       30.24S
PLATTSMOUTH    CLOUDY    24  22  93 NW5       30.24S WCI  18
WAHOO          FAIR      22  20  93 NW6       30.24S WCI  14
$$


 

View Past Reports for Omaha, NE.

Products Courtesy of NOAA-NWS
NWS Information Parsing Script by Ken True at Saratoga Weather - Script by SE Lincoln Weather.